GW2602 Weather Reports


Display with metric or nautical units.
time (UTC)temp
F
wind
direction
speed
MPH
gust
MPH
rain 1hr
in
rain 24hr
in
rain mn
in
humidity
%
barometer
mb
20260506175449 68 17 1.0 6.0 0.00 0.00 0.00 73 1019.8
20260506174944 68 13 1.0 6.0 0.00 0.00 0.00 74 1019.9
20260506174443 67 347 1.0 4.0 0.00 0.00 0.00 74 1019.8
20260506173444 66 49 1.0 6.0 0.00 0.00 0.00 76 1019.8
20260506172945 66 59 0.0 4.0 0.00 0.00 0.00 77 1019.7
20260506172444 65 53 1.0 4.0 0.00 0.00 0.00 78 1019.8
20260506171945 65 79 1.0 4.0 0.00 0.00 0.00 77 1019.8
20260506171444 66 126 0.0 4.0 0.00 0.00 0.00 77 1019.8
20260506171209 66 139 0.0 3.0 0.00 0.00 0.00 78 1019.8
20260506170442 65 57 1.0 4.0 0.00 0.00 0.00 77 1019.8
20260506165940 65 68 1.0 5.0 0.00 0.00 0.00 78 1019.9
20260506165440 65 18 1.0 5.0 0.00 0.00 0.00 78 1019.8
20260506164940 65 53 1.0 4.0 0.00 0.00 0.00 78 1019.8
20260506164440 65 67 0.0 4.0 0.00 0.00 0.00 78 1019.9
20260506164203 66 134 0.0 1.0 0.00 0.00 0.00 77 1019.8
20260506163439 65 138 0.0 1.0 0.00 0.00 0.00 79 1019.7
20260506162939 64 138 0.0 1.0 0.00 0.00 0.00 81 1019.7
20260506162441 64 240 0.0 2.0 0.00 0.00 0.00 78 1019.8
20260506161935 64 240 0.0 2.0 0.00 0.00 0.00 78 1019.8
20260506161435 63 240 0.0 2.0 0.00 0.00 0.00 78 1019.8
20260506161205 63 241 0.0 1.0 0.00 0.00 0.00 78 1019.8
20260506160434 62 242 0.0 1.0 0.00 0.00 0.00 78 1019.8
20260506160202 62 171 0.0 2.0 0.00 0.00 0.00 78 1019.8
20260506155434 63 220 1.0 3.0 0.00 0.00 0.00 79 1019.9
20260506154935 63 256 0.0 3.0 0.00 0.00 0.00 79 1019.8
20260506154434 62 13 0.0 0.0 0.00 0.00 0.00 80 1019.8
20260506153934 62 13 0.0 0.0 0.00 0.00 0.00 80 1019.7
20260506153434 62 13 0.0 0.0 0.00 0.00 0.00 80 1019.8
20260506153154 62 13 0.0 0.0 0.00 0.00 0.00 80 1019.8
20260506152430 62 344 0.0 0.0 0.00 0.00 0.00 80 1019.8
20260506151930 61 115 0.0 1.0 0.00 0.00 0.00 80 1019.7
20260506151430 61 84 0.0 1.0 0.00 0.00 0.00 81 1019.7
20260506150930 61 105 0.0 0.0 0.00 0.00 0.00 82 1019.6
20260506150429 60 198 0.0 0.0 0.00 0.00 0.00 82 1019.6
20260506150146 60 198 0.0 0.0 0.00 0.00 0.00 83 1019.6
20260506145631 59 170 0.0 0.0 0.00 0.00 0.00 83 1019.5
20260506144909 59 240 0.0 0.0 0.00 0.00 0.00 82 1019.6
20260506144402 59 240 0.0 0.0 0.00 0.00 0.00 84 1019.5
20260506143857 59 240 0.0 0.0 0.00 0.00 0.00 83 1019.5
20260506143618 59 240 0.0 0.0 0.00 0.00 0.00 84 1019.5
20260506142846 59 240 0.0 0.0 0.00 0.00 0.00 84 1019.4
20260506142558 59 238 0.0 0.0 0.00 0.00 0.00 86 1019.4
20260506141833 58 238 0.0 0.0 0.00 0.00 0.00 85 1019.4
20260506141327 58 238 0.0 0.0 0.00 0.00 0.00 85 1019.3
20260506141043 58 238 0.0 0.0 0.00 0.00 0.00 86 1019.3
20260506140314 58 238 0.0 0.0 0.00 0.00 0.00 86 1019.3
20260506135809 57 238 0.0 0.0 0.00 0.00 0.00 86 1019.2
20260506135527 57 238 0.0 0.0 0.00 0.00 0.00 85 1019.2
20260506134250 57 238 0.0 0.0 0.00 0.00 0.00 86 1019.1
20260506134006 57 238 0.0 0.0 0.00 0.00 0.00 86 1019.1
20260506133239 57 238 0.0 0.0 0.00 0.00 0.00 86 1019.1
20260506132959 57 238 0.0 0.0 0.00 0.00 0.00 86 1019.1
20260506132227 57 238 0.0 0.0 0.00 0.00 0.00 85 1019.0
20260506131720 57 238 0.0 0.0 0.00 0.00 0.00 84 1018.9
20260506131215 57 238 0.0 0.0 0.00 0.00 0.00 83 1018.8
20260506130709 57 238 0.0 0.0 0.00 0.00 0.00 83 1018.8
20260506130203 57 238 0.0 1.0 0.00 0.00 0.00 83 1018.8
20260506125657 57 238 0.0 2.0 0.00 0.00 0.00 83 1018.8
20260506125152 57 238 0.0 1.0 0.00 0.00 0.00 83 1018.7
20260506124646 57 238 0.0 2.0 0.00 0.00 0.00 83 1018.7
20260506124401 57 238 0.0 3.0 0.00 0.00 0.00 83 1018.6
20260506123633 57 238 0.0 3.0 0.00 0.00 0.00 83 1018.7
20260506123127 57 238 0.0 3.0 0.00 0.00 0.00 83 1018.7
20260506122621 58 238 0.0 3.0 0.00 0.00 0.00 82 1018.6
20260506122114 58 238 1.0 4.0 0.00 0.00 0.00 82 1018.6
20260506121609 58 238 1.0 4.0 0.00 0.00 0.00 82 1018.6
20260506121103 57 238 0.0 2.0 0.00 0.00 0.00 82 1018.5
20260506120558 57 238 0.0 3.0 0.00 0.00 0.00 82 1018.5
20260506120315 57 238 0.0 3.0 0.00 0.00 0.00 82 1018.4
20260506115545 57 238 0.0 3.0 0.00 0.00 0.00 82 1018.4
20260506115307 58 238 0.0 3.0 0.00 0.00 0.00 82 1018.4
20260506114758 57 238 0.0 2.0 0.00 0.00 0.00 82 1018.4
20260506114028 58 238 0.0 2.0 0.00 0.00 0.00 82 1018.4
20260506113521 58 238 0.0 2.0 0.00 0.00 0.00 82 1018.4
20260506113015 58 238 0.0 2.0 0.00 0.00 0.00 82 1018.3
20260506112509 58 238 0.0 2.0 0.00 0.00 0.00 81 1018.3
20260506112226 58 238 0.0 2.0 0.00 0.00 0.00 81 1018.2
20260506111458 58 238 0.0 2.0 0.00 0.00 0.00 81 1018.2
20260506110951 58 238 0.0 2.0 0.00 0.00 0.00 81 1018.2
20260506110444 58 238 0.0 2.0 0.00 0.00 0.00 81 1018.1
20260506105939 58 238 0.0 1.0 0.00 0.00 0.00 82 1018.1
20260506105702 58 238 0.0 2.0 0.00 0.00 0.00 81 1018.1
20260506104938 58 238 1.0 4.0 0.00 0.00 0.00 81 1018.1
20260506104435 58 238 1.0 4.0 0.00 0.00 0.00 81 1018.1
20260506103935 58 238 1.0 4.0 0.00 0.00 0.00 81 1018.0
20260506103434 58 238 1.0 4.0 0.00 0.00 0.00 81 1017.9
20260506102933 58 238 1.0 5.0 0.00 0.00 0.00 81 1017.8
20260506102433 58 238 1.0 5.0 0.00 0.00 0.00 81 1017.7
20260506102153 58 238 1.0 4.0 0.00 0.00 0.00 81 1017.8
20260506101656 58 238 2.0 7.0 0.00 0.00 0.00 80 1017.8
20260506101151 58 241 2.0 7.0 0.00 0.00 0.00 80 1017.7
20260506100432 58 221 2.0 4.0 0.00 0.00 0.00 80 1017.8
20260506095931 58 220 1.0 4.0 0.00 0.00 0.00 80 1017.8
20260506094931 58 219 1.0 4.0 0.00 0.00 0.00 80 1017.7
20260506094432 58 219 2.0 4.0 0.00 0.00 0.00 80 1017.7
20260506093929 58 218 1.0 4.0 0.00 0.00 0.00 80 1017.7
20260506093429 58 219 2.0 3.0 0.00 0.00 0.00 80 1017.8
20260506092929 58 219 1.0 3.0 0.00 0.00 0.00 80 1017.8
20260506092424 58 219 1.0 3.0 0.00 0.00 0.00 80 1017.8
20260506091916 58 219 1.0 3.0 0.00 0.00 0.00 80 1017.8
20260506091412 58 219 1.0 3.0 0.00 0.00 0.00 80 1017.8
20260506090905 58 219 2.0 4.0 0.00 0.00 0.00 80 1017.8
20260506090359 58 219 2.0 5.0 0.00 0.00 0.00 79 1017.8
20260506085853 58 217 2.0 5.0 0.00 0.00 0.00 79 1017.9
20260506085347 58 218 3.0 6.0 0.00 0.00 0.00 79 1017.8
20260506084841 58 217 3.0 6.0 0.00 0.00 0.00 79 1017.8
20260506084336 59 199 2.0 6.0 0.00 0.00 0.00 79 1017.8
20260506083837 59 226 2.0 4.0 0.00 0.00 0.00 78 1017.8
20260506083336 59 236 2.0 4.0 0.00 0.00 0.00 78 1017.9
20260506082834 59 240 1.0 4.0 0.00 0.00 0.00 78 1017.8
20260506082334 59 242 1.0 4.0 0.00 0.00 0.00 79 1017.8
20260506081833 59 213 2.0 4.0 0.00 0.00 0.00 78 1017.8
20260506081333 59 213 1.0 4.0 0.00 0.00 0.00 78 1017.8
20260506080334 59 210 1.0 3.0 0.00 0.00 0.00 79 1017.7
20260506073327 60 210 2.0 5.0 0.00 0.01 0.00 78 1017.5
20260506072826 60 206 2.0 7.0 0.00 0.01 0.00 78 1017.5
20260506072326 60 236 2.0 7.0 0.00 0.01 0.00 77 1017.4
20260506071827 60 228 2.0 4.0 0.00 0.02 0.00 78 1017.4
20260506071327 60 226 2.0 4.0 0.00 0.02 0.00 77 1017.3
20260506070826 60 229 1.0 3.0 0.00 0.02 0.00 77 1017.2
20260506070329 60 234 1.0 3.0 0.00 0.03 0.00 77 1017.2
20260506062322 60 225 2.0 7.0 0.00 0.11 0.03 77 1016.8
20260506061822 60 227 2.0 7.0 0.00 0.12 0.03 77 1016.7
20260506061545 60 199 1.0 5.0 0.00 0.12 0.03 77 1016.7
20260506060824 60 215 1.0 5.0 0.00 0.13 0.03 77 1016.7
20260506060542 60 213 2.0 5.0 0.00 0.13 0.03 77 1016.6
20260506051307 60 236 3.0 8.0 0.00 0.18 0.03 78 1016.4
20260506050800 60 240 3.0 8.0 0.00 0.20 0.03 78 1016.2
20260506050519 60 201 3.0 7.0 0.00 0.20 0.03 78 1016.2
20260506044741 60 231 4.0 10.0 0.00 0.22 0.03 78 1016.0
20260506044238 60 219 5.0 8.0 0.00 0.23 0.03 78 1015.8
20260506043739 60 222 5.0 9.0 0.00 0.23 0.03 77 1015.6
20260506043238 60 221 4.0 10.0 0.00 0.24 0.03 77 1015.7
20260506042738 60 256 4.0 10.0 0.00 0.24 0.03 77 1015.7
20260506042239 60 238 3.0 8.0 0.00 0.25 0.03 78 1015.7
20260506041737 60 205 3.0 7.0 0.00 0.25 0.03 78 1015.7
20260506041457 60 227 2.0 5.0 0.00 0.26 0.03 78 1015.6
20260506040736 60 223 2.0 6.0 0.00 0.28 0.03 78 1015.7
20260506040235 60 257 2.0 6.0 0.00 0.29 0.03 78 1015.6
20260506035734 60 248 3.0 5.0 0.00 0.32 0.03 78 1015.6
20260506035234 60 236 3.0 6.0 0.00 0.35 0.03 78 1015.4
20260506034735 60 215 3.0 7.0 0.00 0.36 0.03 78 1015.5
20260506034235 60 223 4.0 7.0 0.00 0.37 0.03 78 1015.5
20260506033732 60 243 3.0 7.0 0.00 0.37 0.03 78 1015.4
20260506033233 60 223 3.0 7.0 0.00 0.38 0.03 77 1015.3
20260506032732 61 213 4.0 9.0 0.00 0.38 0.03 77 1015.2
20260506032226 61 211 3.0 9.0 0.00 0.38 0.03 77 1015.1
20260506031720 61 212 3.0 8.0 0.00 0.38 0.03 77 1015.1
20260506031214 61 229 4.0 8.0 0.00 0.39 0.03 77 1015.1
20260506030708 61 216 4.0 9.0 0.00 0.39 0.03 77 1014.9
20260506030202 61 238 4.0 10.0 0.00 0.39 0.03 77 1015.0
20260506025920 61 251 4.0 10.0 0.00 0.39 0.03 77 1014.9
20260506025150 61 226 3.0 9.0 0.00 0.39 0.03 77 1014.8
20260506024644 61 221 4.0 8.0 0.00 0.39 0.03 76 1014.8
20260506024138 62 242 4.0 11.0 0.00 0.39 0.03 76 1014.7
20260506023632 62 219 4.0 11.0 0.00 0.39 0.03 76 1014.8
20260506023126 62 234 4.0 8.0 0.00 0.39 0.03 76 1014.7
20260506022620 62 212 5.0 10.0 0.00 0.40 0.03 76 1014.6
20260506022114 62 248 4.0 11.0 0.00 0.40 0.03 76 1014.5
20260506021607 62 224 5.0 11.0 0.00 0.40 0.03 76 1014.5
20260506021102 62 268 4.0 9.0 0.00 0.40 0.03 76 1014.3
20260506020556 62 247 4.0 10.0 0.00 0.40 0.03 76 1014.4
20260506020050 62 230 5.0 10.0 0.00 0.40 0.03 76 1014.5
20260506015812 62 204 5.0 10.0 0.00 0.40 0.03 75 1014.5
20260506015037 63 216 5.0 12.0 0.00 0.40 0.03 75 1014.6
20260506014532 63 236 5.0 12.0 0.00 0.40 0.03 75 1014.5
20260506014026 63 252 5.0 11.0 0.00 0.41 0.03 74 1014.6
20260506013741 63 246 5.0 13.0 0.00 0.41 0.03 74 1014.5
20260506013014 64 238 5.0 13.0 0.00 0.41 0.03 74 1014.5
20260506012509 64 209 5.0 12.0 0.00 0.41 0.03 73 1014.5
20260506012002 64 210 5.0 12.0 0.00 0.42 0.03 73 1014.5
20260506011714 65 232 4.0 11.0 0.00 0.42 0.03 73 1014.3
20260506010950 65 202 6.0 14.0 0.00 0.42 0.03 73 1014.2
20260506010444 65 240 6.0 15.0 0.00 0.42 0.03 73 1014.2
20260506005938 65 248 5.0 15.0 0.00 0.42 0.03 73 1014.1
20260506005432 65 209 5.0 10.0 0.00 0.42 0.03 72 1014.2
20260506005146 65 204 5.0 10.0 0.00 0.43 0.03 72 1014.2
20260506004420 65 227 5.0 10.0 0.00 0.43 0.03 73 1014.2
20260506003914 65 252 6.0 11.0 0.00 0.43 0.03 72 1014.3
20260506003631 66 225 6.0 11.0 0.00 0.43 0.03 71 1014.3
20260506002902 66 248 4.0 11.0 0.00 0.43 0.03 71 1014.3
20260506001850 66 258 4.0 8.0 0.00 0.43 0.03 72 1014.2
20260506001344 66 215 4.0 10.0 0.00 0.43 0.03 73 1014.2
20260506000839 66 244 4.0 10.0 0.00 0.43 0.03 72 1014.2
20260506000332 66 238 4.0 9.0 0.00 0.43 0.03 73 1014.2
20260505235826 65 236 4.0 11.0 0.00 0.43 0.03 73 1014.2
20260505235320 65 225 4.0 11.0 0.00 0.43 0.03 73 1014.2
20260505234815 65 228 4.0 11.0 0.00 0.43 0.03 73 1014.1
20260505234308 65 240 4.0 9.0 0.00 0.43 0.03 73 1014.3
20260505233803 66 186 4.0 8.0 0.00 0.43 0.03 72 1014.2
20260505233256 66 224 4.0 8.0 0.00 0.43 0.03 72 1014.3
20260505232750 66 257 4.0 9.0 0.00 0.43 0.03 74 1014.2
20260505232244 65 198 4.0 9.0 0.00 0.43 0.03 73 1014.3
20260505231737 65 201 4.0 9.0 0.00 0.43 0.03 74 1014.3
20260505231231 65 228 4.0 7.0 0.00 0.43 0.03 74 1014.3
20260505230727 65 226 4.0 9.0 0.00 0.43 0.03 73 1014.4
20260505230219 65 244 4.0 9.0 0.00 0.43 0.03 74 1014.4
20260505225714 65 236 3.0 8.0 0.00 0.43 0.03 74 1014.4
20260505225209 65 207 3.0 7.0 0.00 0.43 0.03 75 1014.4
20260505224702 64 196 3.0 8.0 0.00 0.43 0.03 76 1014.5
20260505224416 64 202 3.0 8.0 0.00 0.43 0.03 75 1014.5
20260505223909 64 225 2.0 5.0 0.00 0.43 0.03 75 1014.6
20260505223144 64 237 2.0 4.0 0.00 0.43 0.03 75 1014.5
20260505222640 64 238 2.0 4.0 0.00 0.43 0.03 75 1014.5
20260505222132 64 238 2.0 5.0 0.00 0.43 0.03 75 1014.7
20260505221125 64 238 3.0 7.0 0.00 0.43 0.03 75 1014.6
20260505220624 64 238 2.0 7.0 0.00 0.43 0.03 75 1014.7
20260505220124 64 239 2.0 7.0 0.00 0.43 0.03 75 1014.7
20260505215623 64 240 3.0 9.0 0.00 0.43 0.03 74 1014.7
20260505215122 65 182 2.0 9.0 0.00 0.43 0.03 74 1014.7
20260505214622 65 221 2.0 5.0 0.00 0.43 0.03 73 1014.7
20260505214122 66 218 1.0 4.0 0.00 0.43 0.03 74 1014.8
20260505213121 65 217 2.0 5.0 0.00 0.43 0.03 73 1014.8
20260505212837 65 175 1.0 5.0 0.00 0.43 0.03 73 1014.8
20260505212118 65 201 0.0 4.0 0.00 0.43 0.03 71 1014.8
20260505211618 65 140 0.0 3.0 0.00 0.43 0.03 74 1014.8
20260505211120 67 232 1.0 4.0 0.00 0.43 0.03 69 1014.9
20260505210616 67 241 1.0 4.0 0.00 0.43 0.03 75 1014.9
20260505210116 66 233 2.0 5.0 0.00 0.43 0.03 77 1014.9
20260505205837 65 236 2.0 5.0 0.00 0.43 0.03 73 1014.9
20260505205116 65 213 1.0 6.0 0.00 0.43 0.03 74 1015.0
20260505204614 64 213 1.0 6.0 0.00 0.43 0.03 78 1015.1
20260505204114 63 247 1.0 3.0 0.00 0.43 0.03 79 1015.0
20260505203614 63 248 1.0 5.0 0.00 0.43 0.03 79 1015.2
20260505203114 62 165 1.0 5.0 0.00 0.43 0.03 79 1015.1
20260505202614 62 163 0.0 3.0 0.00 0.43 0.03 79 1015.1
20260505202115 62 276 0.0 2.0 0.00 0.43 0.03 80 1015.1
20260505201614 62 317 0.0 2.0 0.00 0.43 0.03 79 1015.1
20260505201114 62 317 0.0 2.0 0.00 0.43 0.03 78 1015.2
20260505200610 62 19 0.0 2.0 0.00 0.43 0.03 77 1015.2
20260505200110 63 19 0.0 2.0 0.00 0.43 0.03 78 1015.1
20260505195610 62 22 0.0 2.0 0.00 0.43 0.03 78 1015.1
20260505195109 64 64 1.0 4.0 0.00 0.43 0.03 79 1015.2
20260505194610 62 10 1.0 4.0 0.00 0.43 0.03 78 1015.3
20260505194109 63 53 1.0 4.0 0.00 0.43 0.03 78 1015.2
20260505193610 62 53 2.0 4.0 0.00 0.43 0.03 81 1015.2
20260505193109 61 48 1.0 5.0 0.00 0.43 0.03 82 1015.3
20260505192611 61 0 1.0 7.0 0.00 0.43 0.03 82 1015.3
20260505192109 61 355 2.0 7.0 0.00 0.43 0.03 82 1015.3
20260505191831 61 44 2.0 5.0 0.00 0.43 0.03 82 1015.3
20260505191111 60 73 2.0 5.0 0.00 0.43 0.03 82 1015.3
20260505190612 60 92 2.0 5.0 0.00 0.43 0.03 82 1015.4
20260505185610 60 70 2.0 4.0 0.00 0.43 0.03 83 1015.3
20260505185111 60 74 2.0 4.0 0.00 0.43 0.03 84 1015.1
20260505184610 60 74 1.0 4.0 0.00 0.43 0.03 83 1015.3
20260505184109 60 89 0.0 4.0 0.00 0.43 0.03 83 1015.2
20260505183609 60 98 0.0 4.0 0.00 0.43 0.03 85 1015.1
20260505183110 59 98 0.0 4.0 0.00 0.43 0.03 85 1015.1
20260505182607 59 355 0.0 4.0 0.00 0.43 0.03 85 1015.2
20260505182335 59 15 1.0 4.0 0.00 0.43 0.03 86 1015.0
20260505181608 59 96 1.0 3.0 0.00 0.43 0.03 87 1015.1
20260505181105 59 101 1.0 5.0 0.00 0.43 0.03 86 1015.1
20260505180829 58 19 1.0 5.0 0.00 0.43 0.03 86 1015.0
20260505180105 59 17 1.0 5.0 0.00 0.43 0.03 86 1015.1
20260505175604 58 22 1.0 4.0 0.00 0.43 0.03 86 1015.1